QPF
0.00 0.00 0.00 0.00 0.00 0.00 0.00 0.00 0.00 0.00 0.00 0.00 0.00 0.00 0.02 0.01 0.00 0.00 0.00 0.00 0.01 0.03 0.00 0.00 0.00 0.00 0.00 0.01 0.00 0.00 0.00 0.00 0.00 0.00 0.00 0.00 0.00 0.00 0.00 0.00 0.01 0.00 0.00
0.00 0.00 0.00 0.00 0.00 0.00 0.00 0.00 0.00 0.00 0.00 0.00 0.00 0.00 0.00 0.00 0.00 0.00 0.00 0.00 0.01 0.04 0.02 0.00 0.00 0.00 0.00 0.00 0.01 0.00 0.00 0.00 0.01 0.02 0.01 0.00 0.00 0.01 0.00 0.00 0.02 0.02 0.01
0.00 0.00 0.00 0.00 0.00 0.00 0.00 0.00 0.00 0.00 0.00 0.00 0.00 0.00 0.00 0.00 0.00 0.00 0.00 0.00 0.00 0.05 0.03 0.01 0.00 0.00 0.00 0.00 0.00 0.00 0.00 0.00 0.01 0.02 0.01 0.00 0.00 0.01 0.00 0.01 0.02 0.02 0.01
0.00 0.00 0.00 0.00 0.00 0.00 0.00 0.00 0.00 0.00 0.00 0.00 0.00 0.00 0.00 0.00 0.00 0.00 0.00 0.01 0.03 0.05 0.01 0.00 0.00 0.00 0.00 0.00 0.00 0.00 0.00 0.00 0.03 0.04 0.01 0.01 0.00 0.02 0.01 0.00 0.00 0.00 0.00
0.00 0.00 0.00 0.00 0.00 0.00 0.01 0.00 0.00 0.00 0.00 0.00 0.00 0.00 0.00 0.00 0.00 0.00 0.00 0.00 0.01 0.02 0.00 0.00 0.00 0.00 0.00 0.00 0.00 0.00 0.00 0.02 0.03 0.01 0.02 0.02 0.01 0.00 0.00 0.00 0.00 0.00 0.00
0.00 0.00 0.00 0.00 0.00 0.01 0.01 0.00 0.00 0.00 0.00 0.00 0.00 0.00 0.00 0.00 0.00 0.00 0.00 0.00 0.02 0.01 0.00 0.00 0.00 0.00 0.00 0.00 0.00 0.00 0.00 0.03 0.01 0.02 0.02 0.05 0.04 0.04 0.00 0.00 0.01 0.01 0.01
0.00 0.00 0.00 0.00 0.00 0.00 0.00 0.00 0.00 0.00 0.00 0.00 0.00 0.00 0.00 0.00 0.00 0.00 0.01 0.01 0.06 0.01 0.00 0.00 0.00 0.00 0.00 0.00 0.00 0.00 0.00 0.02 0.00 0.01 0.04 0.06 0.04 0.05 0.01 0.00 0.00 0.00 0.00
0.00 0.00 0.00 0.00 0.00 0.00 0.00 0.02 0.03 0.00 0.00 0.00 0.00 0.00 0.01 0.00 0.01 0.00 0.01 0.03 0.06 0.02 0.01 0.00 0.00 0.00 0.00 0.00 0.00 0.00 0.00 0.00 0.00 0.00 0.01 0.01 0.07 0.04 0.02 0.01 0.00 0.00 0.00
0.00 0.00 0.00 0.00 0.00 0.00 0.00 0.02 0.03 0.02 0.00 0.00 0.00 0.00 0.00 0.01 0.01 0.00 0.00 0.04 0.07 0.04 0.01 0.00 0.00 0.00 0.00 0.00 0.00 0.00 0.00 0.00 0.00 0.00 0.00 0.00 0.03 0.02 0.02 0.01 0.00 0.01 0.01
0.00 0.00 0.00 0.00 0.00 0.00 0.00 0.01 0.03 0.05 0.00 0.00 0.00 0.00 0.00 0.00 0.00 0.00 0.00 0.02 0.05 0.06 0.04 0.01 0.00 0.00 0.00 0.00 0.00 0.00 0.00 0.00 0.00 0.00 0.00 0.01 0.03 0.01 0.00 0.00 0.00 0.00 0.00
0.00 0.00 0.00 0.00 0.00 0.00 0.00 0.01 0.02 0.01 0.00 0.00 0.00 0.00 0.00 0.00 0.00 0.01 0.00 0.01 0.04 0.03 0.03 0.01 0.00 0.00 0.00 0.00 0.00 0.00 0.00 0.00 0.00 0.00 0.00 0.02 0.01 0.00 0.00 0.00 0.00 0.00 0.00
0.00 0.00 0.00 0.00 0.00 0.01 0.03 0.03 0.03 0.02 0.00 0.00 0.00 0.00 0.00 0.00 0.02 0.00 0.02 0.03 0.04 0.06 0.07 0.08 0.01 0.00 0.00 0.00 0.00 0.00 0.00 0.00 0.00 0.00 0.00 0.01 0.01 0.00 0.00 0.00 0.00 0.00 0.00
0.00 0.00 0.00 0.00 0.00 0.01 0.06 0.04 0.09 0.05 0.04 0.03 0.06 0.07 0.04 0.02 0.00 0.01 0.04 0.01 0.02 0.02 0.03 0.03 0.01 0.00 0.00 0.00 0.00 0.00 0.00 0.00 0.00 0.00 0.00 0.00 0.00 0.00 0.00 0.00 0.00 0.00 0.00
0.00 0.00 0.00 0.00 0.00 0.00 0.01 0.01 0.04 0.09 0.06 0.07 0.10 0.13 0.17 0.16 0.06 0.05 0.05 0.06 0.04 0.03 0.01 0.02 0.02 0.02 0.00 0.00 0.00 0.00 0.00 0.00 0.00 0.00 0.00 0.00 0.01 0.01 0.01 0.00 0.00 0.00 0.00
0.00 0.00 0.00 0.00 0.00 0.00 0.00 0.00 0.00 0.01 0.01 0.00 0.01 0.02 0.06 0.10 0.10 0.13 0.13 0.12 0.06 0.08 0.04 0.02 0.03 0.15 0.05 0.00 0.00 0.00 0.00 0.00 0.00 0.00 0.00 0.01 0.03 0.02 0.01 0.00 0.00 0.00 0.00
0.00 0.00 0.00 0.00 0.00 0.00 0.00 0.00 0.00 0.00 0.00 0.00 0.00 0.00 0.00 0.01 0.01 0.00 0.00 0.01 0.02 0.05 0.05 0.03 0.06 0.14 0.04 0.00 0.00 0.00 0.00 0.00 0.00 0.00 0.00 0.01 0.04 0.04 0.01 0.00 0.00 0.00 0.00
0.00 0.00 0.00 0.00 0.00 0.00 0.00 0.00 0.00 0.00 0.00 0.00 0.00 0.00 0.00 0.00 0.00 0.00 0.00 0.00 0.03 0.05 0.04 0.04 0.09 0.16 0.05 0.00 0.00 0.00 0.00 0.00 0.00 0.00 0.00 0.00 0.02 0.04 0.01 0.00 0.00 0.00 0.00
0.00 0.00 0.00 0.00 0.00 0.00 0.00 0.00 0.00 0.00 0.00 0.00 0.00 0.00 0.00 0.00 0.00 0.00 0.00 0.01 0.01 0.02 0.01 0.02 0.07 0.09 0.04 0.02 0.00 0.01 0.01 0.00 0.00 0.00 0.01 0.01 0.01 0.00 0.01 0.02 0.01 0.01 0.01
0.00 0.00 0.00 0.00 0.00 0.00 0.00 0.00 0.00 0.00 0.00 0.00 0.00 0.00 0.00 0.00 0.00 0.00 0.00 0.01 0.00 0.01 0.00 0.01 0.05 0.05 0.02 0.02 0.01 0.02 0.02 0.00 0.00 0.02 0.04 0.03 0.02 0.01 0.00 0.03 0.01 0.01 0.01
0.00 0.00 0.00 0.00 0.00 0.00 0.00 0.00 0.00 0.00 0.00 0.00 0.00 0.00 0.00 0.00 0.00 0.00 0.00 0.00 0.00 0.00 0.00 0.01 0.03 0.07 0.08 0.08 0.04 0.03 0.02 0.00 0.00 0.01 0.04 0.06 0.06 0.03 0.00 0.00 0.01 0.02 0.01
0.00 0.00 0.00 0.00 0.00 0.00 0.00 0.00 0.00 0.00 0.00 0.00 0.00 0.00 0.00 0.00 0.00 0.00 0.00 0.00 0.01 0.01 0.02 0.03 0.03 0.03 0.07 0.08 0.08 0.04 0.02 0.00 0.00 0.00 0.00 0.01 0.04 0.05 0.02 0.00 0.01 0.01 0.01
0.00 0.00 0.00 0.00 0.00 0.00 0.00 0.00 0.00 0.00 0.00 0.00 0.00 0.00 0.00 0.00 0.00 0.00 0.00 0.00 0.00 0.02 0.03 0.03 0.03 0.05 0.05 0.04 0.05 0.05 0.03 0.01 0.00 0.00 0.00 0.00 0.04 0.04 0.02 0.01 0.00 0.00 0.00
0.00 0.00 0.00 0.00 0.00 0.00 0.00 0.00 0.00 0.00 0.00 0.00 0.00 0.00 0.00 0.00 0.01 0.00 0.00 0.00 0.00 0.01 0.03 0.03 0.03 0.02 0.02 0.04 0.03 0.04 0.01 0.01 0.00 0.00 0.01 0.01 0.03 0.08 0.06 0.02 0.01 0.01 0.00
0.00 0.00 0.00 0.00 0.00 0.00 0.00 0.00 0.00 0.00 0.00 0.00 0.00 0.00 0.00 0.01 0.01 0.00 0.00 0.00 0.00 0.02 0.02 0.02 0.03 0.02 0.03 0.03 0.01 0.01 0.00 0.00 0.00 0.00 0.01 0.01 0.03 0.04 0.03 0.02 0.01 0.01 0.01
0.00 0.00 0.00 0.00 0.00 0.00 0.00 0.00 0.00 0.00 0.00 0.00 0.00 0.00 0.00 0.01 0.01 0.00 0.00 0.00 0.01 0.03 0.06 0.02 0.02 0.01 0.00 0.01 0.00 0.00 0.00 0.00 0.00 0.00 0.00 0.00 0.03 0.04 0.01 0.00 0.00 0.00 0.00
0.00 0.00 0.00 0.00 0.00 0.00 0.00 0.00 0.00 0.00 0.00 0.00 0.00 0.00 0.00 0.00 0.00 0.00 0.00 0.00 0.01 0.02 0.06 0.09 0.05 0.03 0.02 0.01 0.01 0.00 0.00 0.00 0.00 0.00 0.00 0.00 0.01 0.01 0.00 0.00 0.00 0.00 0.00
MSLP
1009.27 1009.64 1010.00 1010.47 1010.97 1011.21 1011.39 1011.74 1011.76 1012.07 1012.10 1012.20 1012.30 1012.42 1012.61 1012.73 1012.89 1013.02 1013.13 1013.23 1013.32 1013.28 1013.37 1013.58 1013.59 1013.46 1013.50 1013.43 1013.47 1013.53 1013.53 1013.40 1013.32 1013.20 1013.10 1012.85 1012.66 1012.43 1012.25 1011.93 1011.54 1011.32 1011.17
1008.74 1009.46 1010.03 1010.41 1010.88 1011.24 1011.53 1011.78 1011.95 1012.15 1012.43 1012.44 1012.53 1012.53 1012.67 1012.86 1013.06 1013.22 1013.34 1013.40 1013.58 1013.63 1013.65 1013.73 1013.84 1013.87 1013.80 1013.83 1013.75 1013.85 1013.74 1013.58 1013.50 1013.43 1013.29 1013.27 1013.00 1012.82 1012.71 1012.49 1012.08 1011.79 1011.61
1008.55 1009.32 1010.05 1010.51 1010.91 1011.25 1011.64 1011.90 1012.12 1012.25 1012.49 1012.63 1012.78 1012.77 1012.82 1012.98 1013.12 1013.36 1013.54 1013.61 1013.75 1013.94 1014.01 1014.09 1014.20 1014.21 1014.20 1014.22 1014.17 1014.16 1013.99 1013.80 1013.67 1013.52 1013.52 1013.60 1013.51 1013.19 1013.03 1012.90 1012.53 1012.29 1012.20
1008.24 1009.31 1009.90 1010.51 1010.91 1011.35 1011.68 1011.93 1012.25 1012.46 1012.56 1012.70 1012.96 1012.98 1013.07 1013.07 1013.25 1013.40 1013.60 1013.78 1013.85 1014.17 1014.26 1014.43 1014.59 1014.59 1014.59 1014.57 1014.53 1014.53 1014.35 1014.12 1013.95 1013.94 1014.13 1014.13 1013.99 1013.73 1013.47 1013.25 1013.09 1012.91 1012.80
1008.11 1009.08 1009.77 1010.51 1010.97 1011.34 1011.70 1011.98 1012.44 1012.66 1012.78 1012.81 1013.12 1013.10 1013.21 1013.27 1013.44 1013.61 1013.75 1013.94 1013.90 1014.10 1014.33 1014.60 1014.81 1014.92 1014.87 1014.91 1014.92 1014.82 1014.75 1014.39 1014.37 1014.48 1014.73 1014.70 1014.55 1014.30 1014.04 1013.92 1013.75 1013.51 1013.37
1008.00 1008.61 1009.74 1010.38 1011.03 1011.33 1011.66 1012.04 1012.36 1012.74 1012.92 1012.97 1013.09 1013.24 1013.31 1013.36 1013.59 1013.62 1013.89 1014.14 1014.26 1014.33 1014.52 1014.75 1015.03 1015.13 1015.12 1015.24 1015.25 1015.18 1014.98 1014.82 1014.74 1015.15 1015.21 1015.17 1014.97 1014.70 1014.52 1014.35 1014.28 1014.06 1013.96
1007.89 1008.78 1009.61 1010.34 1010.92 1011.34 1011.69 1011.92 1012.27 1012.73 1012.97 1012.95 1013.23 1013.28 1013.35 1013.46 1013.57 1013.72 1014.04 1014.23 1014.41 1014.59 1014.74 1014.98 1015.16 1015.34 1015.42 1015.47 1015.39 1015.50 1015.40 1015.17 1015.10 1015.49 1015.70 1015.64 1015.51 1015.13 1015.01 1014.87 1014.72 1014.63 1014.50
1007.78 1008.60 1009.61 1010.28 1010.91 1011.34 1011.61 1011.98 1012.26 1012.52 1012.86 1013.11 1013.33 1013.35 1013.34 1013.45 1013.53 1013.85 1014.14 1014.36 1014.64 1014.68 1014.88 1015.20 1015.32 1015.47 1015.67 1015.81 1015.59 1015.67 1015.59 1015.37 1015.36 1015.85 1016.08 1016.16 1015.97 1015.62 1015.60 1015.47 1015.39 1015.28 1015.13
1007.72 1008.58 1009.49 1010.36 1010.78 1011.41 1011.57 1012.07 1012.25 1012.62 1012.88 1013.05 1013.29 1013.42 1013.49 1013.56 1013.64 1014.01 1014.21 1014.43 1014.72 1014.91 1015.00 1015.27 1015.50 1015.67 1015.83 1016.01 1015.95 1015.76 1015.85 1015.76 1015.80 1016.08 1016.26 1016.50 1016.39 1016.15 1016.25 1016.11 1015.94 1015.84 1015.93
1007.87 1008.65 1009.48 1010.13 1010.63 1011.32 1011.57 1011.89 1012.30 1012.61 1012.77 1012.98 1013.21 1013.43 1013.66 1013.75 1013.91 1014.14 1014.32 1014.55 1014.77 1015.01 1015.24 1015.38 1015.57 1015.80 1016.06 1016.18 1016.12 1015.88 1016.13 1016.10 1016.17 1016.54 1016.81 1016.92 1016.57 1016.63 1016.73 1016.88 1016.62 1016.39 1016.28
1008.00 1008.52 1009.26 1009.76 1010.35 1010.73 1011.18 1011.68 1012.15 1012.44 1012.65 1012.91 1013.18 1013.42 1013.65 1013.73 1013.83 1014.11 1014.28 1014.53 1014.80 1015.13 1015.35 1015.48 1015.77 1015.87 1016.18 1016.32 1016.20 1016.09 1016.11 1016.36 1016.38 1016.82 1017.31 1017.37 1017.02 1017.04 1017.23 1017.28 1017.21 1017.00 1016.84
1008.32 1008.80 1009.04 1009.68 1010.06 1010.42 1010.83 1011.51 1012.04 1012.29 1012.57 1012.91 1013.00 1013.19 1013.46 1013.34 1013.58 1013.75 1013.98 1014.36 1014.78 1015.18 1015.58 1015.75 1015.88 1016.04 1016.18 1016.34 1016.34 1016.24 1016.08 1016.53 1016.63 1017.02 1017.35 1017.61 1017.51 1017.58 1017.61 1017.61 1017.59 1017.64 1017.52
1007.98 1008.64 1008.92 1009.42 1009.80 1010.52 1011.12 1011.51 1011.95 1012.08 1012.32 1012.58 1012.71 1013.02 1013.24 1013.20 1013.05 1013.39 1014.01 1014.37 1014.79 1015.15 1015.72 1015.89 1016.05 1016.21 1016.23 1016.27 1016.15 1016.22 1016.11 1016.52 1016.91 1017.30 1017.50 1017.65 1017.94 1018.13 1018.15 1018.04 1018.03 1018.11 1018.25
1007.53 1008.17 1008.63 1009.02 1009.51 1010.30 1010.89 1011.26 1011.65 1011.86 1012.22 1012.55 1012.67 1013.04 1013.38 1013.53 1013.37 1013.54 1013.86 1014.32 1014.72 1015.21 1015.58 1015.93 1016.13 1016.03 1015.99 1015.82 1015.87 1015.94 1015.92 1016.79 1017.39 1017.70 1017.82 1017.98 1018.23 1018.40 1018.53 1018.61 1018.67 1018.76 1018.74
1006.80 1007.56 1008.17 1008.67 1009.26 1009.80 1010.53 1010.77 1011.11 1011.45 1011.84 1011.92 1012.46 1012.64 1013.09 1013.63 1013.74 1013.62 1014.04 1014.47 1014.81 1015.14 1015.31 1015.76 1015.97 1016.20 1016.19 1015.79 1015.73 1015.79 1015.96 1016.93 1017.57 1017.90 1018.07 1018.30 1018.41 1018.65 1018.99 1019.18 1019.17 1019.18 1019.22
1006.23 1007.17 1007.68 1008.32 1009.01 1009.41 1009.94 1010.32 1010.51 1010.67 1011.15 1011.55 1012.02 1012.34 1012.59 1013.22 1013.55 1013.83 1014.19 1014.28 1014.73 1015.05 1015.36 1015.63 1015.89 1016.34 1016.40 1015.95 1016.44 1016.55 1016.55 1017.06 1017.48 1017.98 1018.42 1018.77 1018.85 1018.88 1019.26 1019.68 1019.57 1019.62 1019.71
1005.97 1006.70 1007.25 1007.87 1008.65 1009.19 1009.57 1009.95 1010.38 1010.83 1011.16 1011.59 1011.77 1012.06 1012.42 1012.84 1013.29 1013.57 1014.03 1014.39 1014.51 1015.02 1015.28 1015.49 1015.87 1016.26 1016.47 1016.41 1017.12 1017.29 1017.15 1017.09 1017.69 1018.01 1018.62 1019.04 1019.22 1019.36 1019.26 1019.99 1020.16 1020.18 1020.32
1005.62 1006.30 1006.87 1007.52 1008.36 1008.97 1009.46 1010.04 1010.53 1010.85 1011.36 1011.74 1011.93 1012.32 1012.59 1012.94 1013.03 1013.48 1013.95 1014.21 1014.68 1014.99 1015.30 1015.79 1016.11 1016.46 1016.74 1017.10 1017.87 1017.93 1017.75 1017.49 1017.81 1018.13 1018.73 1019.25 1019.45 1019.70 1019.80 1020.01 1020.51 1020.49 1020.69
1005.40 1006.03 1006.73 1007.24 1008.08 1008.87 1009.45 1010.09 1010.66 1010.97 1011.56 1011.89 1012.17 1012.52 1012.89 1013.13 1013.33 1013.76 1014.11 1014.38 1014.78 1015.18 1015.55 1015.91 1016.30 1016.70 1017.04 1017.72 1018.34 1018.23 1018.41 1018.34 1018.52 1018.65 1019.18 1019.52 1019.81 1019.81 1020.17 1020.33 1020.53 1020.84 1021.03
1005.08 1005.89 1006.52 1007.21 1007.93 1008.76 1009.48 1010.26 1010.95 1011.36 1011.65 1011.76 1012.12 1012.66 1012.84 1013.11 1013.24 1013.63 1014.13 1014.39 1014.72 1015.50 1015.60 1016.05 1016.52 1017.08 1017.59 1018.07 1018.77 1018.80 1018.96 1019.15 1018.98 1019.43 1019.91 1019.87 1020.22 1019.99 1020.20 1020.63 1021.05 1021.13 1021.31
1004.95 1005.85 1006.62 1007.32 1008.02 1008.71 1009.45 1010.40 1011.18 1011.56 1011.78 1012.01 1012.40 1012.61 1012.96 1013.03 1013.03 1013.46 1014.13 1014.44 1014.73 1015.41 1016.00 1016.33 1016.81 1017.34 1018.24 1018.67 1019.14 1019.47 1019.74 1019.55 1019.89 1020.02 1019.91 1020.24 1020.53 1020.46 1020.44 1020.52 1021.27 1021.42 1021.55
1005.02 1005.75 1006.65 1007.39 1008.15 1008.67 1009.17 1009.71 1010.33 1010.89 1011.38 1011.72 1012.05 1012.39 1012.68 1012.94 1013.12 1013.38 1014.06 1014.55 1014.70 1015.45 1016.08 1016.56 1016.69 1017.54 1018.12 1018.48 1019.14 1019.80 1020.23 1020.38 1020.53 1020.52 1020.25 1020.51 1020.71 1020.56 1020.57 1020.53 1021.02 1021.25 1021.53
1004.78 1005.90 1006.81 1007.53 1008.13 1008.67 1009.16 1009.56 1009.98 1010.56 1011.15 1011.71 1012.05 1012.30 1012.44 1012.63 1013.00 1013.50 1013.95 1014.32 1014.79 1015.31 1015.94 1016.44 1016.87 1017.17 1017.83 1018.50 1018.85 1019.16 1019.80 1020.04 1020.52 1020.62 1020.64 1020.64 1020.79 1021.26 1021.02 1020.49 1020.82 1021.31 1021.51
1004.27 1005.59 1006.93 1007.65 1008.15 1008.68 1009.20 1009.75 1010.30 1010.85 1011.51 1011.71 1011.92 1012.09 1012.25 1012.32 1012.81 1013.28 1013.74 1013.97 1014.56 1015.04 1015.74 1016.37 1016.76 1016.99 1017.45 1017.97 1018.49 1018.84 1019.14 1019.28 1019.92 1020.73 1020.86 1020.86 1021.09 1021.21 1021.34 1021.16 1020.65 1021.17 1021.51
1004.62 1005.53 1006.76 1007.84 1008.37 1008.79 1009.29 1009.80 1010.37 1010.72 1010.97 1011.18 1011.55 1012.10 1012.32 1012.44 1012.66 1013.26 1013.69 1014.08 1014.45 1014.92 1015.45 1016.00 1016.56 1016.95 1017.17 1017.72 1018.02 1018.96 1019.32 1019.11 1019.65 1019.98 1020.46 1020.92 1021.08 1021.20 1021.47 1020.83 1020.65 1021.06 1021.69
1005.45 1006.20 1007.02 1008.11 1008.87 1009.22 1009.65 1009.96 1010.25 1010.59 1010.90 1011.39 1011.88 1012.37 1012.71 1012.84 1013.17 1013.48 1013.67 1013.99 1014.10 1014.74 1015.24 1015.73 1016.12 1016.51 1017.01 1017.50 1017.83 1018.21 1018.70 1019.08 1019.13 1019.67 1020.16 1020.82 1020.88 1021.11 1021.22 1020.67 1020.66 1020.82 1021.66
Thickness
5791 5791 5788 5784 5780 5778 5777 5773 5775 5772 5772 5772 5771 5770 5768 5767 5765 5764 5763 5762 5761 5762 5761 5759 5759 5760 5759 5759 5759 5757 5757 5757 5757 5757 5756 5757 5757 5758 5759 5761 5763 5763 5763
5796 5790 5785 5783 5779 5776 5774 5771 5771 5770 5767 5768 5767 5768 5767 5764 5762 5760 5759 5758 5756 5756 5757 5757 5756 5756 5756 5754 5755 5754 5755 5755 5755 5754 5754 5753 5754 5755 5755 5756 5758 5759 5759
5793 5787 5781 5778 5775 5773 5770 5768 5767 5766 5764 5764 5763 5763 5763 5761 5761 5757 5755 5755 5753 5752 5752 5752 5751 5751 5751 5750 5749 5750 5752 5752 5753 5753 5752 5750 5749 5751 5752 5752 5754 5755 5754
5795 5784 5780 5775 5772 5769 5766 5766 5763 5762 5762 5761 5759 5759 5759 5759 5758 5756 5754 5752 5751 5748 5748 5747 5745 5746 5746 5746 5746 5745 5746 5748 5749 5749 5746 5745 5745 5746 5748 5749 5749 5750 5749
5792 5782 5777 5772 5768 5765 5763 5763 5759 5758 5757 5758 5756 5757 5755 5755 5754 5752 5751 5749 5749 5748 5745 5743 5741 5739 5741 5740 5740 5741 5741 5743 5743 5743 5740 5740 5739 5740 5742 5743 5743 5745 5745
5787 5784 5774 5770 5763 5762 5760 5759 5758 5755 5754 5754 5754 5753 5752 5752 5750 5751 5748 5746 5744 5744 5742 5740 5737 5736 5736 5735 5735 5735 5736 5738 5738 5735 5734 5734 5735 5736 5737 5738 5738 5740 5740
5784 5779 5772 5767 5762 5759 5757 5758 5756 5752 5751 5752 5750 5750 5750 5749 5749 5747 5744 5742 5740 5740 5738 5736 5734 5732 5731 5730 5731 5730 5729 5731 5732 5729 5728 5728 5729 5731 5732 5733 5734 5734 5734
5781 5776 5767 5763 5758 5756 5755 5753 5753 5752 5750 5748 5747 5747 5748 5747 5747 5744 5741 5739 5736 5736 5735 5730 5729 5728 5726 5724 5727 5726 5725 5726 5726 5723 5721 5721 5722 5725 5725 5726 5727 5727 5728
5781 5774 5764 5758 5755 5750 5752 5748 5749 5748 5746 5745 5743 5743 5744 5743 5742 5739 5738 5735 5733 5731 5729 5727 5724 5723 5721 5719 5719 5722 5720 5720 5720 5718 5715 5714 5715 5718 5717 5719 5720 5721 5720
5776 5770 5763 5756 5753 5748 5748 5746 5743 5743 5743 5742 5740 5739 5738 5738 5736 5735 5733 5731 5729 5726 5723 5721 5719 5717 5716 5714 5714 5716 5715 5714 5714 5710 5708 5707 5709 5709 5710 5710 5712 5714 5715
5767 5764 5762 5756 5751 5750 5747 5743 5740 5740 5740 5738 5736 5735 5733 5734 5734 5730 5729 5727 5724 5720 5718 5716 5713 5713 5710 5708 5708 5708 5709 5709 5708 5704 5701 5700 5702 5702 5702 5703 5704 5706 5708
5754 5755 5757 5753 5750 5747 5744 5740 5738 5737 5737 5734 5734 5733 5731 5733 5730 5728 5726 5724 5719 5715 5711 5710 5708 5707 5705 5703 5702 5702 5703 5702 5703 5698 5696 5694 5695 5694 5694 5695 5697 5697 5699
5753 5750 5750 5749 5746 5741 5738 5735 5734 5735 5735 5733 5732 5729 5727 5728 5730 5727 5722 5718 5715 5709 5704 5703 5701 5700 5701 5698 5698 5696 5696 5696 5696 5690 5689 5688 5686 5685 5686 5688 5688 5688 5689
5749 5747 5746 5747 5744 5738 5734 5733 5731 5733 5730 5729 5728 5723 5721 5720 5723 5720 5719 5713 5708 5702 5700 5696 5695 5695 5694 5695 5693 5691 5690 5687 5686 5682 5680 5679 5678 5678 5678 5678 5679 5679 5679
5747 5746 5744 5745 5743 5740 5733 5732 5730 5729 5726 5727 5723 5721 5717 5712 5714 5714 5710 5705 5700 5696 5694 5690 5688 5686 5684 5686 5686 5684 5680 5677 5675 5673 5672 5669 5670 5670 5668 5668 5669 5670 5671
5745 5745 5745 5742 5740 5739 5734 5732 5731 5729 5726 5722 5720 5716 5715 5709 5707 5705 5703 5700 5695 5691 5687 5683 5681 5676 5676 5676 5673 5670 5669 5668 5668 5664 5661 5659 5660 5662 5660 5658 5660 5661 5661
5744 5743 5743 5740 5737 5734 5732 5731 5728 5724 5721 5718 5715 5714 5709 5706 5702 5700 5698 5692 5689 5683 5679 5676 5673 5668 5667 5667 5659 5657 5657 5658 5658 5655 5650 5649 5650 5650 5653 5649 5649 5651 5651
5743 5739 5740 5740 5734 5730 5728 5726 5721 5718 5713 5711 5709 5705 5701 5699 5698 5694 5690 5686 5680 5675 5672 5668 5665 5659 5656 5653 5646 5644 5644 5647 5649 5646 5642 5639 5641 5641 5642 5642 5639 5641 5642
5740 5736 5736 5734 5730 5725 5723 5719 5714 5711 5706 5702 5699 5696 5691 5690 5688 5684 5680 5677 5671 5666 5663 5659 5655 5649 5645 5639 5634 5635 5632 5633 5638 5635 5633 5631 5630 5634 5632 5633 5632 5631 5631
5738 5732 5732 5728 5725 5722 5717 5712 5706 5702 5700 5698 5692 5690 5685 5683 5681 5679 5670 5666 5664 5656 5654 5650 5643 5638 5633 5627 5621 5620 5620 5619 5625 5623 5622 5622 5620 5625 5626 5624 5622 5624 5622
5732 5725 5723 5720 5717 5715 5709 5704 5695 5691 5690 5689 5687 5682 5679 5678 5677 5671 5665 5657 5655 5649 5643 5639 5632 5626 5618 5613 5608 5605 5605 5609 5610 5612 5615 5613 5610 5613 5616 5617 5615 5615 5615
5723 5719 5716 5713 5709 5708 5705 5703 5698 5691 5688 5685 5684 5679 5674 5670 5665 5662 5655 5649 5648 5641 5634 5628 5624 5615 5609 5606 5600 5591 5593 5596 5597 5601 5606 5605 5605 5605 5605 5608 5608 5609 5609
5717 5711 5708 5705 5703 5702 5699 5697 5694 5690 5684 5678 5674 5672 5668 5664 5659 5651 5647 5645 5639 5633 5627 5622 5617 5611 5602 5593 5591 5592 5589 5594 5593 5593 5595 5596 5596 5592 5593 5599 5600 5600 5603
5714 5709 5702 5699 5696 5695 5693 5688 5683 5677 5672 5672 5669 5666 5663 5658 5652 5646 5642 5638 5632 5628 5621 5615 5610 5604 5598 5591 5589 5588 5590 5595 5588 5586 5587 5588 5588 5587 5586 5589 5593 5594 5595
5705 5704 5696 5690 5688 5688 5685 5681 5677 5673 5672 5670 5666 5658 5653 5649 5646 5640 5635 5630 5626 5623 5618 5612 5606 5598 5596 5591 5591 5583 5584 5591 5590 5588 5586 5581 5582 5581 5578 5583 5588 5587 5584
5694 5692 5687 5681 5677 5676 5674 5673 5672 5669 5667 5660 5655 5648 5642 5638 5635 5632 5628 5626 5623 5617 5613 5609 5604 5598 5594 5591 5590 5588 5588 5587 5587 5586 5582 5576 5578 5578 5575 5580 5581 5580 5576